EW3567 Weather Reports


Display with metric or nautical units.
time (UTC)temp
F
wind
direction
speed
MPH
gust
MPH
rain 1hr
in
rain 24hr
in
rain mn
in
humidity
%
barometer
mb
20181121111205 47 83 1.0 5.0 0.00 0.01 0.00 77 1012.9
20181121110705 48 95 2.0 3.0 0.00 0.01 0.00 77 1012.8
20181121110204 48 95 0.0 13.0 0.00 0.01 0.00 78 1012.8
20181121000705 43 67 8.0 21.0 0.00 0.01 0.00 76 1008.0
20181121000204 43 73 7.0 13.0 0.00 0.01 0.00 77 1008.0
20181120235704 43 66 6.0 12.0 0.00 0.01 0.00 76 1007.9
20181120235204 43 65 9.0 16.0 0.00 0.01 0.00 76 1007.9
20181120234704 43 71 8.0 16.0 0.00 0.01 0.00 76 1007.9
20181120234204 43 68 9.0 15.0 0.00 0.01 0.00 76 1008.0
20181120233704 44 60 9.0 15.0 0.00 0.01 0.00 76 1008.2
20181120233205 44 74 9.0 16.0 0.00 0.01 0.00 76 1008.2
20181120232705 43 57 9.0 16.0 0.00 0.01 0.00 77 1008.2
20181120232204 43 72 8.0 16.0 0.00 0.01 0.00 76 1008.2
20181120231704 43 72 9.0 17.0 0.00 0.01 0.00 76 1008.2
20181120231204 43 69 11.0 18.0 0.00 0.01 0.00 76 1008.4
20181120230704 43 73 9.0 20.0 0.00 0.01 0.00 76 1008.4
20181120230204 43 70 7.0 25.0 0.00 0.01 0.00 75 1008.5
20181120225705 43 76 9.0 20.0 0.00 0.01 0.00 75 1008.5
20181120225204 43 70 9.0 16.0 0.00 0.01 0.00 76 1008.5
20181120224704 43 62 10.0 20.0 0.00 0.01 0.00 76 1008.5
20181120224205 42 101 10.0 18.0 0.00 0.01 0.00 76 1008.5
20181120223705 42 88 10.0 20.0 0.00 0.01 0.00 75 1008.5
20181120223204 43 93 11.0 20.0 0.00 0.01 0.00 76 1008.5
20181120222705 42 94 9.0 16.0 0.00 0.01 0.00 75 1008.6
20181120222206 43 73 9.0 16.0 0.00 0.01 0.00 76 1008.6
20181120221704 43 48 11.0 16.0 0.00 0.01 0.00 76 1008.4
20181120221204 43 89 11.0 18.0 0.00 0.01 0.00 77 1008.5
20181120220704 43 90 10.0 18.0 0.00 0.01 0.00 76 1008.5
20181120220204 43 69 9.0 15.0 0.00 0.01 0.00 76 1008.5
20181120215705 43 106 9.0 17.0 0.00 0.01 0.00 77 1008.4
20181120215204 43 124 9.0 16.0 0.00 0.01 0.00 77 1008.3
20181120214704 43 80 7.0 14.0 0.00 0.01 0.00 76 1008.4
20181120214204 43 77 9.0 16.0 0.00 0.01 0.00 77 1008.4
20181120213703 43 84 9.0 15.0 0.00 0.01 0.00 77 1008.3
20181120213205 43 75 10.0 16.0 0.00 0.01 0.00 76 1008.3
20181120212704 43 73 8.0 14.0 0.00 0.01 0.00 77 1008.4
20181120212205 43 81 9.0 18.0 0.00 0.01 0.00 77 1008.3
20181120211704 43 75 9.0 20.0 0.00 0.01 0.00 77 1008.3
20181120211204 43 97 10.0 20.0 0.00 0.01 0.00 77 1008.1
20181120210705 43 84 10.0 17.0 0.00 0.01 0.00 78 1008.1
20181120210205 43 48 10.0 17.0 0.00 0.01 0.00 77 1008.2
20181120205704 43 60 11.0 18.0 0.00 0.01 0.00 77 1008.1
20181120205204 43 93 10.0 17.0 0.00 0.01 0.00 78 1008.1
20181120204704 43 83 9.0 17.0 0.00 0.01 0.00 77 1008.2
20181120204204 43 78 10.0 17.0 0.00 0.01 0.00 78 1008.1
20181120203704 43 75 9.0 18.0 0.00 0.01 0.00 77 1008.1
20181120203204 43 84 12.0 17.0 0.00 0.01 0.00 78 1007.9
20181120202705 43 111 9.0 18.0 0.00 0.01 0.00 78 1008.0
20181120202205 42 85 10.0 18.0 0.00 0.01 0.00 77 1008.0
20181120201704 43 74 10.0 17.0 0.00 0.01 0.00 78 1007.8
20181120201204 43 72 12.0 18.0 0.00 0.01 0.00 77 1007.6
20181120200704 43 75 8.0 20.0 0.00 0.01 0.00 78 1007.7
20181120200205 43 73 12.0 15.0 0.00 0.01 0.00 76 1007.8
20181120195704 43 79 9.0 15.0 0.00 0.01 0.00 77 1007.9
20181120195205 43 79 9.0 16.0 0.00 0.01 0.00 77 1007.8
20181120194705 43 84 10.0 16.0 0.00 0.01 0.00 77 1007.7
20181120194205 43 93 10.0 18.0 0.00 0.01 0.00 76 1007.7
20181120193725 43 87 7.0 15.0 0.00 0.01 0.00 76 1007.6
20181120193204 43 88 9.0 14.0 0.00 0.01 0.00 76 1007.5
20181120192705 42 78 10.0 17.0 0.00 0.01 0.00 76 1007.5
20181120192205 43 77 6.0 13.0 0.00 0.01 0.00 75 1007.6
20181120191704 43 62 5.0 10.0 0.00 0.01 0.00 75 1007.7
20181120191205 43 80 6.0 12.0 0.00 0.01 0.00 75 1007.7
20181120190704 43 82 7.0 10.0 0.00 0.01 0.00 75 1007.6
20181120190204 43 76 9.0 15.0 0.00 0.01 0.00 74 1007.4
20181120185703 43 79 11.0 16.0 0.00 0.01 0.00 75 1007.2
20181120185204 42 118 9.0 14.0 0.00 0.01 0.00 76 1007.2
20181120184704 42 73 8.0 14.0 0.00 0.01 0.00 75 1007.1
20181120184204 42 68 9.0 16.0 0.00 0.01 0.00 75 1007.2
20181120183704 42 73 12.0 20.0 0.00 0.01 0.00 75 1007.2
20181120183204 42 69 9.0 15.0 0.00 0.01 0.00 75 1007.3
20181120182704 42 57 7.0 15.0 0.00 0.01 0.00 76 1007.4
20181120182203 42 85 9.0 18.0 0.00 0.01 0.00 76 1007.4
20181120181703 41 71 6.0 13.0 0.00 0.01 0.00 76 1007.5
20181120181204 41 79 9.0 18.0 0.00 0.01 0.00 75 1007.4
20181120180704 41 80 10.0 20.0 0.00 0.01 0.00 77 1007.5
20181120180204 41 75 10.0 18.0 0.00 0.01 0.00 76 1007.6
20181120175704 41 73 11.0 18.0 0.00 0.01 0.00 76 1007.7
20181120175204 41 67 11.0 18.0 0.00 0.01 0.00 76 1007.8
20181120174704 41 78 12.0 20.0 0.00 0.01 0.00 76 1007.7
20181120174204 41 82 9.0 15.0 0.00 0.01 0.00 77 1007.8
20181120173704 41 90 7.0 14.0 0.00 0.01 0.00 76 1007.7
20181120173209 41 95 7.0 17.0 0.00 0.01 0.00 77 1007.6
20181120171713 40 72 8.0 17.0 0.00 0.01 0.00 77 1007.5
20181120171207 40 78 10.0 17.0 0.00 0.01 0.00 76 1007.5
20181120170708 40 81 10.0 18.0 0.00 0.01 0.00 76 1007.5
20181120170204 40 87 9.0 17.0 0.00 0.01 0.00 77 1007.4
20181120165704 40 75 12.0 20.0 0.00 0.01 0.00 77 1007.4
20181120165204 40 71 7.0 13.0 0.00 0.01 0.00 77 1007.4
20181120164704 40 69 9.0 18.0 0.00 0.01 0.00 76 1007.4
20181120164204 40 86 10.0 17.0 0.00 0.01 0.00 77 1007.2
20181120163704 40 82 12.0 20.0 0.00 0.01 0.00 77 1007.2
20181120163204 41 91 11.0 18.0 0.00 0.01 0.00 77 1007.2
20181120162705 40 91 10.0 17.0 0.00 0.01 0.00 77 1007.1
20181120162204 41 101 8.0 16.0 0.00 0.01 0.00 77 1007.0
20181120161704 41 91 9.0 18.0 0.00 0.01 0.00 77 1006.9
20181120161204 41 87 9.0 16.0 0.00 0.01 0.00 77 1007.0
20181120160705 40 89 8.0 17.0 0.00 0.01 0.00 77 1006.9
20181120160204 40 90 7.0 21.0 0.00 0.01 0.00 77 1006.7
20181120155704 40 83 11.0 20.0 0.00 0.01 0.00 77 1006.6
20181120155204 40 77 12.0 20.0 0.00 0.01 0.00 77 1006.5
20181120154704 40 86 11.0 18.0 0.00 0.01 0.00 77 1006.4
20181120154204 40 75 10.0 16.0 0.00 0.01 0.00 78 1006.3
20181120153704 40 78 9.0 18.0 0.00 0.01 0.00 77 1006.3
20181120153204 40 67 13.0 21.0 0.00 0.01 0.00 76 1006.2
20181120152704 41 84 14.0 23.0 0.00 0.01 0.00 76 1006.2
20181120152204 41 78 12.0 18.0 0.00 0.01 0.00 77 1006.1
20181120151705 41 60 12.0 22.0 0.00 0.01 0.00 76 1006.1
20181120151204 41 82 12.0 20.0 0.00 0.01 0.00 76 1006.1
20181120150704 41 81 11.0 18.0 0.00 0.01 0.00 75 1006.0
20181120150204 42 91 9.0 16.0 0.00 0.01 0.00 74 1006.0
20181120145704 42 78 5.0 15.0 0.00 0.01 0.00 75 1006.0
20181120145204 42 107 9.0 14.0 0.00 0.01 0.00 75 1006.1
20181120144704 42 96 7.0 14.0 0.00 0.01 0.00 75 1006.1
20181120144204 42 69 7.0 12.0 0.00 0.01 0.00 75 1006.0
20181120143704 42 79 7.0 15.0 0.00 0.01 0.00 75 1006.0
20181120143204 42 91 7.0 12.0 0.00 0.01 0.00 75 1005.8
20181120142704 42 89 7.0 12.0 0.00 0.01 0.00 75 1005.7
20181120142205 42 79 8.0 20.0 0.00 0.01 0.00 75 1005.5
20181120141704 42 77 8.0 20.0 0.00 0.01 0.00 76 1005.6
20181120141204 41 72 9.0 17.0 0.00 0.01 0.00 75 1005.6
20181120140704 41 63 10.0 20.0 0.00 0.01 0.00 76 1005.6
20181120140205 41 64 11.0 20.0 0.00 0.01 0.00 76 1005.6
20181120135704 41 82 12.0 20.0 0.00 0.01 0.00 76 1005.7
20181120134704 41 52 11.0 20.0 0.00 0.01 0.00 76 1005.9
20181120134205 41 80 11.0 20.0 0.00 0.01 0.00 77 1005.9
20181120133704 41 82 10.0 15.0 0.00 0.01 0.00 78 1006.1
20181120133205 40 81 11.0 20.0 0.00 0.01 0.00 78 1006.1
20181120132704 40 70 10.0 16.0 0.00 0.01 0.00 77 1006.2
20181120132204 40 88 12.0 18.0 0.00 0.01 0.00 78 1006.3
20181120131714 40 72 12.0 18.0 0.00 0.01 0.00 79 1006.4
20181120131204 40 66 9.0 20.0 0.00 0.01 0.00 79 1006.5
20181120130704 39 91 11.0 21.0 0.00 0.01 0.00 79 1006.5
20181120130204 39 68 14.0 22.0 0.00 0.01 0.00 78 1006.5
20181120125704 39 81 9.0 18.0 0.00 0.01 0.00 80 1006.5
20181120125204 39 82 12.0 25.0 0.00 0.01 0.00 79 1006.6
20181120124705 39 81 13.0 24.0 0.00 0.01 0.00 80 1006.5
20181120123704 39 87 15.0 24.0 0.00 0.01 0.00 77 1006.6
20181120123204 39 89 15.0 31.0 0.00 0.01 0.00 78 1006.5
20181120122705 38 27 14.0 31.0 0.00 0.01 0.00 78 1006.6
20181120122204 38 88 15.0 26.0 0.00 0.01 0.00 77 1006.5
20181120121705 39 106 14.0 26.0 0.00 0.01 0.00 77 1006.6
20181120121204 39 88 13.0 23.0 0.00 0.01 0.00 77 1006.6
20181120120704 39 69 13.0 25.0 0.00 0.01 0.00 77 1006.7
20181120120204 39 88 13.0 20.0 0.00 0.01 0.00 77 1006.7
20181120115704 39 82 16.0 26.0 0.00 0.01 0.00 77 1006.6
20181120115204 39 83 10.0 20.0 0.00 0.01 0.00 77 1006.6
20181120114704 39 84 13.0 26.0 0.00 0.01 0.00 77 1006.5
20181120114204 39 83 16.0 28.0 0.00 0.01 0.00 77 1006.4
20181120113704 39 76 16.0 23.0 0.00 0.01 0.00 76 1006.4